Regional Weather Roundup
Issued by NWS

Home | Current Version | Previous Version | Text Only | Print | Product List | Glossary On
Versions: 1 2 3 4 5 6 7 8 9 10 11 12 13 14 15 16 17 18 19 20 21 22 23 24 25 26 27 28 29 30 31 32 33 34 35 36 37 38 39 40 41 42 43 44 45 46 47 48
000
ASUS42 KKEY 110710
RWRKEY

FLORIDA REGIONAL WEATHER ROUNDUP FOR THE FLORIDA KEYS
NATIONAL WEATHER SERVICE KEY WEST FLORIDA
200 AM EST THU FEB 11 2016

...SOUTH FLORIDA AND THE KEYS...

CITY           SKY/WX    TMP DP  RH WIND       PRES   REMARKS
FORT MYERS     CLEAR     46  40  79 E3        30.27S
SW REGIONAL AP CLEAR     48  41  76 N3        30.27F
NAPLES         PTCLDY    48  44  86 NE3       30.27S
MIAMI          PTCLDY    52  43  71 NW8       30.27R
WEST KENDALL   CLEAR     50  44  80 N10       30.27R
HOMESTEAD      PTCLDY    50  42  75 NW5       30.25F
MARATHON       PTCLDY    57  47  69 N8        30.26F
BOCA CHICA NAS CLEAR     59  50  72 N7        30.26F
KEY WEST INTL  PTCLDY    59  52  77 NE7       30.27F

...INTERNATIONAL WEATHER...

CITY           SKY/WX    TMP DP  RH WIND       PRES   REMARKS
NASSAU BAHAMAS PTCLDY    68  37  32 NW7       30.21F
CANCUN MEXICO  MOCLDY    57  57 100 W3        30.24F
COZUMEL MEXICO PTCLDY    64  59  82 N13       30.24F

ADJACENT COASTAL WATERS...

STATION/POSITION TIME  SKY/WX   TEMP    WIND        PRES    WAVE
                                AIR SEA DIR/SP/G            HT/PER
                 (UTC)          (F)     (DEG/KT/KT) (MB)    (FT/S)
PULASKI SHOAL LI NOT AVBL
SAND KEY         0650            60      30/ 13/ 17 1024.9F
SOMBRERO KEY     NOT AVBL
LONG KEY         0600            58 64  360/ 11/ 14 1025.8F
MOLASSES REEF    0600            58 74  350/ 12/ 14 1024.6F
FOWEY ROCKS      NOT AVBL

$$



USA.gov is the U.S. government's official web portal to all federal, state and local government web resources and services.